Weather History for Whiteman AFB, MO

Change the Weather History Date:

Sunday, August 26, 2012

  Actual Average Record
Temperature  
Mean Temperature 74 °F -  
Max Temperature 81 °F 86 °F 102 °F (2003)
Min Temperature 69 °F 66 °F 56 °F (2008)
Cooling Degree Days 10    
Growing Degree Days 24 (Base 50)    
Moisture  
Dew Point 73 °F    
Average Humidity 95    
Maximum Humidity 100    
Minimum Humidity 74    
Precipitation  
Precipitation 0.43 in - - ()
Sea Level Pressure  
Sea Level Pressure 29.94 in    
Wind  
Wind Speed 12 mph (SSW)    
Max Wind Speed 21 mph    
Max Gust Speed 32 mph    
Visibility 9 miles    
Events Rain    
Averages and records for this station are not official NWS values.
T = Trace of Precipitation, MM = Missing Value Source: NWS Daily Summary

Daily Weather History Graph

Daily Weather History Graph

Search for Another Location

Airport:

Trip Planner

Search our weather history database for the weather conditions in past years. The results will help you decide how hot, cold, wet, or windy it might be!

Date:

Astronomy

Aug. 26, 2012 Rise Set
Actual Time 6:38 AM CDT 7:52 PM CDT
Civil Twilight 6:10 AM CDT 8:20 PM CDT
Nautical Twilight 5:37 AM CDT 8:52 PM CDT
Astronomical Twilight 5:03 AM CDT 9:27 PM CDT
Moon 4:21 PM CDT (8/26) 1:22 AM CDT (8/26)
Length of Visible Light 14h 09m
Length of Day
13h 14m
Waxing Gibbous, 73% of the Moon is Illuminated
Aug 26
Waxing Gibbous
Aug 31
Full
Sep 8
Last Quarter
Sep 15
New
Sep 22
First Quarter

Hourly Weather History & Observations

Time (CDT) Temp. Heat Index Dew Point Humidity Pressure Visibility Wind Dir Wind Speed Gust Speed Precip Events Conditions
12:55 AM 74.8 °F - 73.2 °F 95% 29.88 in 10.0 mi South 19.6 mph 25.3 mph N/A Rain Light Rain
1:19 AM 73.4 °F - 73.4 °F 100% 29.88 in 10.0 mi South 16.1 mph - N/A   Overcast
1:55 AM 72.3 °F - 72.0 °F 99% 29.88 in 10.0 mi SSW 12.7 mph - 0.01 in   Mostly Cloudy
2:27 AM 71.6 °F - 71.6 °F 100% 29.89 in 7.0 mi SSW 10.4 mph - N/A Rain Light Rain
2:55 AM 72.0 °F - 72.0 °F 100% 29.89 in 10.0 mi SSW 11.5 mph - 0.01 in Rain Light Rain
3:55 AM 72.0 °F - 72.0 °F 100% 29.88 in 5.0 mi SSE 8.1 mph - 0.12 in Rain Light Rain
3:57 AM 71.6 °F - 71.6 °F 100% 29.88 in 7.0 mi South 15.0 mph 20.7 mph N/A Rain Rain
4:09 AM 71.6 °F - 71.6 °F 100% 29.89 in 6.0 mi SSW 20.7 mph 32.2 mph N/A Rain Light Rain
4:22 AM 69.8 °F - 69.8 °F 100% 29.89 in 7.0 mi SSW 16.1 mph - N/A Rain Rain
4:55 AM 70.0 °F - 70.0 °F 100% 29.91 in 10.0 mi SSW 13.8 mph - 0.15 in   Mostly Cloudy
5:00 AM 69.8 °F - 69.8 °F 100% 29.91 in 10.0 mi SSW 10.4 mph - N/A   Mostly Cloudy
5:35 AM 69.8 °F - 69.8 °F 100% 29.91 in 10.0 mi SSW 9.2 mph - N/A Rain Light Rain
5:55 AM 69.8 °F - 69.8 °F 100% 29.92 in 6.0 mi SSW 10.4 mph - 0.00 in Rain Light Rain
6:55 AM 69.6 °F - 69.6 °F 100% 29.92 in 10.0 mi South 5.8 mph - 0.05 in Rain Light Rain
7:25 AM 69.8 °F - 69.8 °F 100% 29.94 in 5.0 mi South 13.8 mph - N/A Rain Light Rain
7:32 AM 69.8 °F - 69.8 °F 100% 29.94 in 6.0 mi South 12.7 mph - N/A   Light Drizzle
7:39 AM 69.8 °F - 69.8 °F 100% 29.94 in 10.0 mi South 13.8 mph - N/A Rain Light Rain
7:55 AM 70.2 °F - 70.2 °F 100% 29.94 in 10.0 mi South 10.4 mph - 0.03 in Rain Light Rain
8:21 AM 69.8 °F - 69.8 °F 100% 29.95 in 10.0 mi South 11.5 mph - N/A Rain Light Rain
8:55 AM 71.2 °F - 71.2 °F 100% 29.96 in 10.0 mi South 12.7 mph - 0.01 in   Overcast
9:36 AM 73.4 °F - 73.4 °F 100% 29.96 in 10.0 mi SSW 12.7 mph - N/A   Overcast
9:55 AM 72.9 °F - 72.9 °F 100% 29.96 in 10.0 mi SSW 11.5 mph - N/A   Overcast
10:16 AM 75.2 °F - 75.2 °F 100% 29.96 in 10.0 mi SSW 13.8 mph - N/A   Overcast
10:22 AM 75.2 °F - 75.2 °F 100% 29.96 in 10.0 mi SSW 15.0 mph - N/A   Mostly Cloudy
10:55 AM 76.8 °F - 73.8 °F 90% 29.96 in 10.0 mi SSW 18.4 mph - N/A   Overcast
11:55 AM 75.7 °F - 73.4 °F 92% 29.98 in 10.0 mi South 12.7 mph - N/A   Overcast
12:55 PM 77.4 °F - 72.3 °F 84% 29.97 in 10.0 mi SSW 12.7 mph - N/A   Overcast
1:21 PM 78.8 °F - 71.6 °F 78% 29.96 in 10.0 mi SSW 13.8 mph - N/A   Overcast
1:55 PM 80.1 °F 83.8 °F 72.0 °F 76% 29.96 in 10.0 mi SSW 12.7 mph - N/A   Mostly Cloudy
2:55 PM 79.5 °F - 72.3 °F 79% 29.95 in 10.0 mi South 15.0 mph - N/A   Overcast
3:08 PM 80.6 °F 84.6 °F 71.6 °F 74% 29.95 in 3.0 mi West 9.2 mph - N/A Rain Light Rain
3:26 PM 75.2 °F - 75.2 °F 100% 29.95 in 2.5 mi West 4.6 mph - N/A Rain Light Rain
3:43 PM 75.2 °F - 75.2 °F 100% 29.95 in 10.0 mi SSW 8.1 mph - N/A   Mostly Cloudy
3:55 PM 75.6 °F - 75.6 °F 100% 29.96 in 10.0 mi SSW 10.4 mph - 0.05 in   Mostly Cloudy
4:55 PM 78.6 °F - 75.6 °F 90% 29.94 in 10.0 mi SSW 5.8 mph - N/A   Mostly Cloudy
5:23 PM 78.8 °F - 75.2 °F 89% 29.94 in 10.0 mi Variable 2.3 mph - N/A   Mostly Cloudy
5:55 PM 79.3 °F - 74.5 °F 85% 29.94 in 10.0 mi South 4.6 mph - N/A   Mostly Cloudy
6:55 PM 79.5 °F - 73.8 °F 82% 29.94 in 10.0 mi Calm Calm - N/A   Overcast
7:55 PM 77.7 °F - 75.4 °F 92% 29.95 in 10.0 mi Calm Calm - N/A   Mostly Cloudy
8:55 PM 77.4 °F - 75.0 °F 92% 29.97 in 10.0 mi Calm Calm - N/A   Overcast
9:55 PM 76.1 °F - 76.1 °F 100% 29.99 in 10.0 mi Calm Calm - N/A   Overcast
10:55 PM 74.5 °F - 74.5 °F 100% 30.00 in 10.0 mi Calm Calm - N/A   Scattered Clouds
11:55 PM 73.6 °F - 73.6 °F 100% 30.01 in 10.0 mi NW 4.6 mph - N/A   Clear